200 serials | videospirit pro 1.72 registration code

Date Name Success Rate
2009-10-17 06:19:27 Bar Code Pro FileMaster V2.1 MacOSX 59%
2009-10-17 06:19:27 Bar Code Pro V6.02 48%
2009-10-17 06:19:27 Bar Code Pro V6.11 MacOSX-ART 12%
2009-10-17 06:20:07 CATIII Software Code Signer Pro V1.2 12%
2009-10-17 06:20:25 Code Visualizer V2.25 57%
2009-10-17 06:20:25 Code Visualizer V2.64 52%
2009-10-17 06:20:25 Code Visualizer V2.99 26%
2009-10-17 06:20:25 Code-It ASound Recorder V2.5 63%
2009-10-17 06:27:02 Lazarus Registration DLL V1.0 59%
2009-10-23 07:01:23 3D Miracle 1.72 0%
2009-10-23 07:01:23 3D Miracle X.xx-1.72 0%
2009-10-23 07:01:24 3DMiracle 1.72 0%
2009-10-22 23:27:13 Adobe Mpeg Encoder Activation Code For Premiere Pro 64%
2009-10-22 23:27:21 Ardamax Keylogger 2.9 Registration 56%
2009-10-22 23:44:48 Bar Code Pro FileMaster V2.1 0%
2009-10-22 23:44:48 Bar Code Pro V6.02 0%
2009-10-22 23:44:48 Bar Code Pro V6.11 0%
2009-10-22 23:45:49 Camfrog Pro Code 74%
2009-10-22 23:45:50 CATIII Software Code Signer Pro V1.2 0%
2009-10-22 23:45:53 Code Pro Evolution 6 62%
2009-10-22 23:45:53 Code Source 34%
2009-10-22 23:46:26 Desktop Resetter 1.72 0%
2009-10-22 23:47:43 Express Thumbnail Creator 1.72 0%
2009-10-22 23:47:52 FlashGet 1.72 0%
2009-10-22 23:48:07 Hide IP Platinum 1.72 0%
2009-10-22 23:48:17 Internet Download Manager Registration 50%
2009-10-22 23:48:48 MemoriesonTV Registration 0%
2009-10-22 23:48:49 Microsoft Registration Hacker - 39%
2009-10-22 23:48:51 MP3 Disc Burner 1.72 0%
2009-10-22 23:49:00 Next FTP 1.72 0%
2009-10-22 23:49:02 Norton Internet Security 2005 Registration Guide 0%
2009-10-22 23:49:13 OrangeNettrace 2005 1.72 0%
2009-10-22 23:49:27 PStill 1.72 0%
2009-10-22 23:49:42 Registration Wizard 56%
2009-10-22 23:49:52 Secure Browser 1.72 0%
2009-10-22 23:49:56 Sony Acid Pro 4.0 Tested Code 80%
2009-10-22 23:49:57 SoudForge ALL (No Registration Requiered) 0%
2009-10-22 23:50:10 The Nightshift Code V1.0.0.76 0%
2009-10-22 23:50:26 Valve's Registration Armor Key-Gen 60%
2009-10-22 23:50:39 Woo Web Pro 1.72 0%
2011-09-08 09:45:41 20/20 Pc-Install Pro v5.08 Code 80%
2011-09-08 09:46:04 3DMiracle x.xx-1.72 0%
2011-09-08 09:58:40 Acoustica Mixcraft v1.10 Build 15 Registration Info by MaBi 60%
2011-09-08 10:00:33 Adobe Mpeg Encoder Activation Code For Premiere Pro 0%
2011-09-08 10:00:42 Adobe PhotoShop v5.0x78 Code 0%
2011-09-08 10:01:05 Advanced Code Editor v3.0.6 0%
2011-09-08 10:05:35 All Sound recorder 1.72 0%
2011-09-08 10:06:47 AnetHelpTool v4.02 Registration 60%
2011-09-08 10:06:56 Animated TrayIcon v3.3 Pro. for Delphi/C++ Code 0%
2011-09-08 10:09:13 Astound WebMotion Code 0%
2011-09-08 10:11:47 AutoCAD 2002 Authorization code 49%
2011-09-08 10:12:14 Automate Pro V3.7E Code 0%
2011-09-08 10:12:16 AutoMate Standard V3.6E Code 0%
2011-09-08 10:18:52 Bar Code Pro 6.02 0%
2011-09-08 10:18:52 Bar Code Pro UPC v1.0 mac 54%
2011-09-08 10:21:42 Browserola v1.01 Temp. Registration 0%
2011-09-08 10:22:13 ByeLines Registration 60%
2011-09-08 10:23:14 Calendar 98 Code: EPOCH 0%
2011-09-08 10:24:49 CD-Spectrum Pro v3.2.327 Code 0%
2011-09-08 10:25:56 Cheyenne Bitware V4.0 Registration Number 60%
2011-09-08 10:26:20 Claris Filemaker Pro v4.0 Code 0%
2011-09-08 10:26:46 Clipboard Extender v1.01 Code 0%
2011-09-08 10:27:32 Code 55%
2011-09-08 10:27:32 Code Assist 1.1 40%
2011-09-08 10:27:32 Code co-op 3.1 0%
2011-09-08 10:27:32 Code Co-op 4.1a 0%
2011-09-08 10:27:32 Code Co-Op v3.3b 61%
2011-09-08 10:27:32 Code Co-op v4.1 0%
2011-09-08 10:27:32 Code Co-op v4.5c 40%
2011-09-08 10:27:32 Code Counter Pro v1.10 0%
2011-09-08 10:27:32 Code Database 2.2.3 0%
2011-09-08 10:27:32 Code Digger 2.0+ 0%
2011-09-08 10:27:32 Code Digger v2.11 by BLiZZARD 0%
2011-09-08 10:27:32 Code Genie v3.03.14 0%
2011-09-08 10:27:32 Code Keeper 1.20 0%
2011-09-08 10:27:32 Code Maker 3.03 0%
2011-09-08 10:27:32 Code Maker v3.36 Win9xNT 0%
2011-09-08 10:27:36 Code Print Pro 3.2 0%
2011-09-08 10:27:36 Code Print Pro v3.0 for Delphi 0%
2011-09-08 10:27:36 Code Print Pro v3.2 0%
2011-09-08 10:27:36 Code Print Pro v3.2 for Visual Basic 0%
2011-09-08 10:27:36 Code VBA 2.0 0%
2011-09-08 10:27:36 Code Whiz Editor 1.2 0%
2011-09-08 10:27:36 Code Whiz Editor v1.3 0%
2011-09-08 10:27:36 Code Wiz 3.0 0%
2011-09-08 10:27:36 Code Wizard v3.0 0%
2011-09-08 10:27:36 Code-Genie 3.06.11 0%
2011-09-08 10:27:36 Code-Genie 3.07.04 0%
2011-09-08 10:27:36 Code-Genie 3.10.20 0%
2011-09-08 10:27:36 Code-Genie v1.10.28 by REVENGE 0%
2011-09-08 10:27:36 Code-Genie v3.05.31 0%
2011-09-08 10:27:36 Code-Genie v3.08.15 0%
2011-09-08 10:27:36 CODE-VB 3.03 57%
2011-09-08 10:27:50 Collection Access System 1.72 0%
2011-09-08 10:42:09 DAS Registration 1.5.2 69%
2011-09-08 10:42:09 DAS Registration For CW5 0%
2011-09-08 10:42:09 DAS Registration v1.5.2 0%
2011-09-08 10:42:17 DataViz MacOPener v2.0 Code 0%
2011-09-08 10:42:34 Debabelizer Pro Code 0%
2011-09-08 10:43:58 DiskCat V4.3 Code 0%
2011-09-08 10:44:47 Dragon Dictate v3.0 Code 0%
2011-09-08 10:44:55 Drive Image Pro Code 0%
2011-09-08 10:46:43 EAN Bar Code 0%
2011-09-08 10:49:16 Emails 1.72 french 0%
2011-09-08 10:49:57 ESS Code 0%
2011-09-08 10:49:57 ESS Code v7.7 and v7.8 53%
2011-09-08 10:49:57 ESS-Code 0%
2011-09-08 10:50:06 Eudora Pro Comm Center v4.0For Win95/NT Code 0%
2011-09-08 10:50:35 Express Thumbnail Creator 1.72 0%
2011-09-08 10:55:12 Fish for Windows 95 Code 0%
2011-09-08 10:55:14 Fix-It v2.30 Reg Code 56%
2011-09-08 10:55:16 Flaming Pear India Ink Photoshop PlugIn 1.72 0%
2011-09-08 10:55:30 FlashGet 1.72 0%
2011-09-08 10:56:11 FontLook v3.1 Registration Code 86%
2011-09-08 10:57:42 Ftgate Registration 63%
2011-09-08 10:58:01 FutureSplash Animator v1.0 Code 0%
2011-09-08 11:01:54 G-Code-It v3.0 0%
2011-09-08 11:02:29 GetRight v1.1A Code 0%
2011-09-08 11:02:29 GetRight v3.1+ Code 0%
2011-09-08 11:02:31 GetRight v5.02b Code Remover 0%
2011-09-08 11:06:35 Hexer Code 0%
2011-09-08 11:06:49 Hide IP Platinum 1.72 0%
2011-09-08 11:07:11 Hijaak Pro v4.0 Code 0%
2011-09-08 11:09:29 Hotfax Code 0%
2011-09-08 11:15:16 Infodex v2.10 Registration 0%
2011-09-08 11:16:03 InterBack 1.72 0%
2011-09-08 11:17:10 Ipublish v2.02 Code 0%
2011-09-08 11:18:31 Java Code Viewer v4.8.1 0%
2011-09-08 11:24:46 L3ENC Code 0%
2011-09-08 11:24:46 L3ENC v2.71 reg code 0%
2011-09-08 11:25:08 Lazarus Registration DLL v1.0 0%
2011-09-08 11:27:46 Mac Opener v3.0 Registration 57%
2011-09-08 11:27:48 MacDrive 98 Code 0%
2011-09-08 11:27:56 Macro Magic V2.1a Code 0%
2011-09-08 11:28:01 Macromedia Director v6.5 Code 0%
2011-09-08 11:29:40 MathCad v7.0 Pro for Windows 95/NT Code 0%
2011-09-08 11:30:06 MDB Code Generator v1.00.0191 0%
2011-09-08 11:30:16 MediaBlaze 98 v1.01 Win95/NT User: delphic Registration 0%
2011-09-08 11:31:51 Microsoft Registration Hacker 0%
2011-09-08 11:31:51 Microsoft Registration Hacker - 0%
2011-09-08 11:31:51 Microsoft Registration Hacker MSREGHACK 80%
2011-09-08 11:31:51 Microsoft Registration HackerMSREGHACK 0%
2011-09-08 11:31:51 Microsoft Visual Basic 5 registration cd key 72%
2011-09-08 11:32:07 Microstation v5.xx.xx & 95 FULL REGISTRATION 48%
2011-09-08 11:32:59 mIRC v4.5+ Registration 60%
2011-09-08 11:32:59 mIRC v4.52 Registration 60%
2011-09-08 11:34:07 MP3 Disc Burner 1.72 0%
2011-09-08 11:34:36 MP3 Viewer 1.72 0%
2011-09-08 11:42:37 Next FTP 1.72 0%
2011-09-08 11:42:43 Nic O'Matic 1.6 Registration Code 50%
2011-09-08 11:42:43 Nic O'Matic v1.6 Registration Code 55%
2011-09-08 12:26:38 Omni Page Pro. v7.01 forWindows 95 Code 0%
2011-09-08 12:26:42 OmniPage Pro v7.0 Code 0%
2011-09-08 12:27:14 OrangeNettrace 2005 1.72 0%
2011-09-08 12:27:50 Pagis Pro '97 Code 0%
2011-09-08 12:28:40 Password Pro v2.0.0 Code 0%
2011-09-08 12:34:30 Pluck-It Code 0%
2011-09-08 12:34:30 PluckIt! Code 0%
2011-09-08 12:34:57 PolyTrans V1.2E Registration Activator CD-Key 62%
2011-09-08 12:34:57 PolyView v2.9b16 Registration 0%
2011-09-08 12:35:55 PowerDVD Code 55%
2011-09-08 12:36:44 QACP 1.72 0%
2011-09-08 12:37:02 Quant v2.0 Registration 0%
2011-09-08 12:39:02 Psychedelic ScreenSaver V3.6 Code for CD Spectrum Pro 0%
2011-09-08 12:41:14 Registration Suite 1.0 60%
2011-09-08 12:41:14 Registration Suite v1.0 60%
2011-09-08 12:41:14 Registration Wizard Pro 5.01 0%
2011-09-08 12:41:14 Registration Wizard Pro v5.01 60%
2011-09-08 12:45:07 SaleSmartz Pro v3.0 Win95/NT Activation Code: e2bkCbbjZGpadan 0%
2011-09-08 12:46:25 Secure Browser 1.72 0%
2011-09-08 12:52:10 TeeChart Pro Full Source Code for Delphi CPPB Kylix 5.02 0%
2011-09-08 12:52:10 TeeChart Pro Full Source Code for Delphi CPPB Kylix v5.02 0%
2011-09-08 12:52:48 Texturizer 1.72 0%
2011-09-08 12:54:09 Time Registration (German) 1.10 0%
2011-09-08 12:54:14 TimeSlips 10.5 enterprise - with registration code! 0%
2011-09-08 12:58:05 Standardizer 1.72 0%
2011-09-08 12:59:30 Super Collapse Registration 100%
2011-09-08 13:11:10 V7Soft - Hide IP Platinum 1.72 0%
2011-09-08 13:12:43 Visual Help Pro v3.1e Win 1/2 Reg. code is month checking 0%
2011-09-08 13:13:25 VuePrint 32 Pro v1.0E Code 0%
2011-09-08 13:13:27 VUEPrint v1.1F Pro Code 0%
2011-09-08 13:15:37 WarezFTP PRO V4.12 Code 0%
2011-09-08 13:16:08 Web Promotion Spider Pro v3.8.76 Professional Code 0%
2011-09-08 13:16:08 Web Promotion Spider Pro v3.8.76 Standard Code 0%
2011-09-08 13:16:37 WebGenie Shopping Cart Pro v2.02 Code 0%
2011-09-08 13:16:39 WebImage 1.72 0%
2011-09-08 13:16:39 Webimage Miner 1.72 0%
2011-09-08 13:16:51 Webspider Code 0%
2011-09-08 13:18:02 Windows & Internet Cleaner 1.72 0%
2011-09-08 13:18:59 WinHacker 95 v2.02 Registration 57%
2011-09-08 13:20:30 Woo Web Pro 1.72 0%
2011-09-08 13:20:51 WS_FTP PRO V4.12 FOR Windows Code 0%
2011-09-08 13:23:15 Yipe! II for Windows Registration #154 0%
2011-09-08 13:23:48 Zip Code Pro 99 ActiveX 1.0 0%
2011-09-08 13:23:48 Zip Code Pro 99 ActiveX v1.0 0%
2012-12-12 05:06:04 camfrog CODE : 28%
2012-12-12 08:07:32 Download avast 5.0.667 Antivirus registration 0%
2012-12-12 12:41:36 Full speed 3.3 pro boost unlock code 48%
2012-12-12 16:57:20 Kickback code 0%
2012-12-12 19:40:26 Microsoft Visual Basic 2008 Express Edition Registration key 20%